1484715600.06,29043,4.25,73616.8,-15.43,-40.85,-42.83,0,*6B
1484715601.32,29044,4.31,73618.5,-15.43,-40.73,-42.69,0,*61
1484715602.58,29045,4.31,73618.8,-15.43,-40.73,-42.83,0,*64
1484715603.82,29046,4.31,73620.5,-15.43,-40.91,-42.89,0,*61
1484715605.08,29047,4.25,73618.5,-15.43,-40.91,-42.83,0,*6A
1484715606.34,29048,4.31,73616.5,-15.43,-40.73,-42.83,0,*69
1484715607.6,29049,4.31,73618.3,-15.43,-40.65,-42.69,0,*6B
1484715608.88,29050,4.31,73618.5,-15.43,-40.85,-42.83,0,*69
1484715610.13,29051,4.31,73616.8,-15.43,-40.65,-42.83,0,*66
1484715611.37,29052,4.31,73616.5,-15.45,-40.79,-42.75,0,*67
1484715612.59,29053,4.25,73618.3,-15.45,-40.91,-42.89,0,*63
1484715613.83,29054,4.31,73620.5,-15.45,-40.79,-42.75,0,*61
1484715615.12,29055,4.31,73618.8,-15.43,-40.85,-42.83,0,*6C
1484715616.4,29056,4.31,73622.8,-15.43,-40.85,-42.83,0,*6F
1484715617.69,29057,4.31,73618.0,-15.43,-40.85,-42.83,0,*6E
1484715618.9,29058,4.31,73618.5,-15.45,-40.91,-42.89,0,*68
1484715620.19,29059,4.31,73622.0,-15.43,-40.85,-42.83,0,*60
1484715621.43,29060,4.31,73618.8,-15.45,-40.73,-42.69,0,*61
1484715622.71,29061,4.25,73616.8,-15.43,-40.85,-42.69,0,*6F
1484715623.95,29062,4.25,73616.8,-15.43,-41.03,-42.89,0,*6D
1484715625.19,29063,4.31,73620.3,-15.43,-40.91,-42.89,0,*66
1484715626.46,29064,4.25,73616.8,-15.45,-40.97,-42.95,0,*6C
1484715627.7,29065,4.31,73620.5,-15.43,-40.91,-42.89,0,*60
1484715628.96,29066,4.31,73622.5,-15.43,-40.85,-42.89,0,*66
1484715630.18,29067,4.31,73618.8,-15.45,-40.91,-42.89,0,*64
1484715631.47,29068,4.31,73622.0,-15.43,-40.85,-42.83,0,*62
1484715632.71,29069,4.31,73622.0,-15.45,-41.11,-42.95,0,*6E
1484715633.96,29070,4.25,73616.8,-15.45,-41.03,-42.95,0,*65
1484715635.2,29071,4.31,73622.8,-15.45,-41.11,-42.95,0,*67
1484715636.45,29072,4.31,73618.8,-15.45,-40.91,-42.95,0,*6D
1484715637.72,29073,4.31,73622.3,-15.45,-40.97,-42.95,0,*6A
1484715638.96,29074,4.31,73622.8,-15.45,-40.97,-42.89,0,*60
1484715640.22,29075,4.25,73618.3,-15.43,-40.85,-42.89,0,*64
1484715641.46,29076,4.31,73620.0,-15.45,-41.03,-42.83,0,*64
1484715642.73,29077,4.31,73620.5,-15.43,-40.91,-42.83,0,*69
1484715644.0,29078,4.31,73622.8,-15.45,-40.97,-42.95,0,*61
1484715645.24,29079,4.31,73622.3,-15.45,-41.17,-42.95,0,*69
1484715646.48,29080,4.25,73616.5,-15.45,-40.97,-42.89,0,*6B
1484715647.72,29081,4.31,73620.3,-15.45,-41.11,-42.95,0,*68
1484715648.96,29082,4.31,73620.8,-15.45,-41.11,-42.95,0,*6B
1484715650.18,29083,4.25,73618.3,-15.45,-41.11,-43.01,0,*66
1484715651.42,29084,4.25,73618.0,-15.49,-41.17,-43.21,0,*69
1484715652.65,29085,4.31,73620.8,-15.47,-41.11,-43.01,0,*62
1484715653.9,29086,4.31,73620.3,-15.49,-40.97,-43.01,0,*60
1484715655.14,29087,4.25,73620.8,-15.47,-40.91,-42.89,0,*68
1484715656.38,29088,4.31,73622.3,-15.47,-41.11,-43.15,0,*6A
1484715657.62,29089,4.25,73616.0,-15.47,-41.11,-43.01,0,*6E
1484715658.86,29090,4.25,73618.3,-15.47,-41.11,-43.01,0,*66
1484715660.07,29091,4.31,73620.8,-15.49,-41.11,-43.01,0,*69
1484715661.37,29092,4.31,73620.3,-15.47,-40.97,-42.95,0,*67
1484715662.61,29093,4.25,73618.5,-15.49,-41.17,-43.09,0,*65
1484715663.86,29094,4.31,73618.5,-15.49,-41.03,-42.95,0,*63
1484715665.13,29095,4.31,73620.0,-15.47,-41.11,-42.95,0,*6F
1484715666.38,29096,4.31,73622.5,-15.49,-40.97,-43.01,0,*61
1484715667.63,29097,4.31,73622.3,-15.49,-41.03,-42.95,0,*60
1484715668.85,29098,4.31,73622.8,-15.49,-41.03,-43.01,0,*63
1484715670.11,29099,4.25,73618.8,-15.47,-40.79,-42.89,0,*61
1484715671.37,29100,4.31,73620.8,-15.49,-40.97,-42.83,0,*64
1484715672.64,29101,4.31,73620.5,-15.49,-40.79,-42.83,0,*65
1484715673.9,29102,4.31,73620.0,-15.49,-40.79,-42.83,0,*66
1484715675.17,29103,4.25,73620.5,-15.49,-40.85,-42.95,0,*63
1484715676.45,29104,4.31,73620.8,-15.47,-40.59,-42.57,0,*65
1484715677.71,29105,4.31,73620.3,-15.49,-40.79,-42.83,0,*61
1484715678.98,29106,4.31,73618.8,-15.49,-40.85,-42.83,0,*61
1484715680.25,29107,4.31,73620.8,-15.49,-40.97,-42.95,0,*64
1484715681.52,29108,4.31,73618.8,-15.49,-40.85,-42.95,0,*68
1484715682.8,29109,4.25,73618.3,-15.49,-40.97,-42.95,0,*6A
1484715684.04,29110,4.25,73618.8,-15.47,-40.91,-42.89,0,*67
1484715685.31,29111,4.31,73622.0,-15.49,-40.85,-42.95,0,*60
1484715686.58,29112,4.25,73618.5,-15.49,-40.97,-42.95,0,*60
1484715687.85,29113,4.31,73620.8,-15.49,-40.97,-42.83,0,*66
1484715689.11,29114,4.31,73620.8,-15.49,-40.97,-42.83,0,*61
1484715690.38,29115,4.31,73620.3,-15.49,-40.79,-42.83,0,*60
1484715691.64,29116,4.31,73620.3,-15.49,-40.97,-42.83,0,*63
1484715692.91,29117,4.31,73618.8,-15.49,-40.97,-42.95,0,*65
1484715694.16,29118,4.31,73620.3,-15.47,-40.91,-42.89,0,*6F
1484715695.45,29119,4.31,73620.8,-15.51,-40.85,-42.95,0,*61
1484715696.75,29120,4.31,73622.0,-15.51,-40.85,-42.95,0,*6B
1484715698.02,29121,4.25,73618.3,-15.49,-40.97,-42.95,0,*60
1484715699.29,29122,4.31,73620.8,-15.49,-40.97,-42.95,0,*63
1484715700.59,29123,4.31,73620.8,-15.51,-40.85,-42.95,0,*68
1484715701.88,29124,4.25,73618.8,-15.51,-40.97,-42.95,0,*6C
1484715703.13,29125,4.31,73620.8,-15.49,-41.03,-42.95,0,*68
1484715704.4,29126,4.25,73618.0,-15.49,-40.97,-42.83,0,*60
1484715705.65,29127,4.25,73618.0,-15.49,-40.85,-42.75,0,*6B
1484715706.91,29128,4.31,73622.5,-15.49,-40.97,-42.83,0,*6E
1484715708.18,29129,4.31,73622.3,-15.49,-40.97,-42.95,0,*68
1484715709.45,29130,4.25,73616.8,-15.49,-40.79,-42.95,0,*60
1484715710.74,29131,4.31,73618.3,-15.51,-40.79,-42.83,0,*6F
1484715712.02,29132,4.25,73618.3,-15.51,-40.97,-42.83,0,*6C
1484715713.31,29133,4.25,73616.0,-15.51,-40.97,-42.83,0,*6D
1484715714.6,29134,4.31,73620.3,-15.51,-40.85,-42.83,0,*69
1484715715.86,29135,4.31,73620.8,-15.49,-40.79,-42.83,0,*62
1484715717.13,29136,4.31,73620.0,-15.51,-40.79,-42.75,0,*61
1484715718.42,29137,4.25,73618.5,-15.51,-40.85,-42.83,0,*6A
1484715719.7,29138,4.31,73622.5,-15.51,-40.97,-42.83,0,*66
1484715720.98,29139,4.31,73622.8,-15.53,-40.85,-42.95,0,*61
1484715722.27,29140,4.31,73622.0,-15.51,-40.85,-42.83,0,*6A
1484715723.56,29141,4.31,73618.3,-15.51,-40.85,-42.83,0,*6B
1484715724.81,29142,4.25,73616.8,-15.53,-40.85,-42.75,0,*63
1484715726.1,29143,4.25,73618.0,-15.51,-40.85,-42.83,0,*69
1484715727.38,29144,4.31,73622.3,-15.51,-40.97,-42.83,0,*6D
1484715728.65,29145,4.31,73620.0,-15.53,-40.85,-42.83,0,*6D
1484715729.91,29146,4.25,73618.3,-15.51,-40.65,-42.83,0,*62
1484715731.19,29147,4.31,73622.5,-15.51,-40.79,-42.83,0,*6E
1484715732.48,29148,4.31,73620.3,-15.51,-40.97,-42.83,0,*61
1484715733.75,29149,4.25,73616.8,-15.49,-40.97,-42.83,0,*69
1484715735.02,29150,4.31,73622.3,-15.51,-40.85,-42.75,0,*62
1484715736.31,29151,4.31,73622.8,-15.51,-40.97,-42.83,0,*69
1484715737.6,29152,4.31,73618.8,-15.51,-40.85,-42.83,0,*69
1484715738.89,29153,4.31,73622.3,-15.51,-40.97,-42.83,0,*6B
1484715740.17,29154,4.31,73622.5,-15.51,-40.85,-42.83,0,*6F
1484715741.43,29155,4.31,73624.0,-15.53,-41.03,-42.95,0,*64
1484715742.7,29156,4.31,73622.0,-15.49,-40.97,-42.95,0,*60
1484715743.99,29157,4.31,73622.8,-15.51,-40.85,-42.83,0,*6C
1484715745.21,29158,4.31,73622.8,-15.53,-40.65,-42.75,0,*66
1484715746.47,29159,4.31,73620.5,-15.51,-40.79,-42.75,0,*68
1484715747.74,29160,4.31,73620.8,-15.53,-40.79,-42.83,0,*69
1484715749.0,29161,4.25,73618.3,-15.51,-40.79,-42.75,0,*63
1484715750.29,29162,4.31,73622.3,-15.51,-40.79,-42.83,0,*69
1484715751.55,29163,4.31,73624.5,-15.51,-40.79,-42.75,0,*61
1484715752.82,29164,4.25,73622.0,-15.51,-40.79,-42.75,0,*66
1484715754.06,29165,4.31,73620.5,-15.53,-40.65,-42.83,0,*61
1484715755.34,29166,4.31,73622.3,-15.51,-40.79,-42.83,0,*6D
1484715756.63,29167,4.25,73620.8,-15.51,-40.85,-42.83,0,*6F
1484715757.92,29168,4.31,73620.3,-15.51,-40.97,-42.83,0,*63
1484715759.16,29169,4.25,73622.5,-15.49,-40.79,-42.75,0,*62
1484715760.39,29170,4.25,73618.8,-15.49,-40.65,-42.83,0,*6E
1484715761.66,29171,4.31,73622.3,-15.51,-40.79,-42.75,0,*62
1484715762.95,29172,4.31,73622.5,-15.51,-40.85,-42.83,0,*6B
1484715764.24,29173,4.31,73620.3,-15.51,-40.85,-42.83,0,*6A
1484715765.48,29174,4.31,73620.0,-15.51,-40.65,-42.63,0,*6D
1484715766.76,29175,4.31,73620.3,-15.51,-40.79,-42.83,0,*6F
1484715768.06,29176,4.25,73620.5,-15.51,-40.85,-42.95,0,*68
1484715769.3,29177,4.31,73622.8,-15.51,-40.65,-42.75,0,*69
1484715770.55,29178,4.31,73622.3,-15.51,-40.65,-42.83,0,*6F
1484715771.84,29179,4.31,73620.5,-15.51,-40.79,-42.83,0,*63
1484715773.12,29180,4.31,73620.3,-15.51,-40.79,-42.83,0,*65
1484715774.41,29181,4.31,73620.8,-15.51,-40.79,-42.83,0,*64
1484715775.67,29182,4.25,73622.0,-15.51,-40.79,-42.75,0,*6E
1484715776.96,29183,4.25,73616.8,-15.51,-40.79,-42.83,0,*66
1484715778.22,29184,4.25,73618.0,-15.51,-40.79,-42.75,0,*68
1484715779.49,29185,4.31,73620.3,-15.53,-40.97,-42.83,0,*62
1484715780.78,29186,4.31,73620.8,-15.51,-40.97,-42.83,0,*63
1484715782.07,29187,4.25,73616.0,-15.51,-40.85,-42.83,0,*61
1484715783.36,29188,4.31,73622.0,-15.51,-40.85,-42.83,0,*6E
1484715784.64,29189,4.25,73620.5,-15.51,-40.97,-42.83,0,*6C
1484715785.93,29190,4.31,73620.8,-15.51,-40.85,-42.83,0,*67
1484715787.22,29191,4.25,73620.5,-15.51,-40.85,-42.83,0,*66
1484715788.51,29192,4.31,73626.0,-15.51,-40.85,-42.83,0,*65
1484715789.78,29193,4.25,73620.8,-15.51,-40.79,-42.75,0,*6E
1484715791.06,29194,4.25,73618.0,-15.51,-40.85,-42.83,0,*63
1484715792.35,29195,4.31,73624.5,-15.51,-40.79,-42.83,0,*61
1484715793.63,29196,4.31,73622.8,-15.51,-40.79,-42.83,0,*62
1484715794.9,29197,4.31,73620.8,-15.51,-40.79,-42.75,0,*6A
1484715796.18,29198,4.31,73622.5,-15.51,-40.79,-42.83,0,*6C
1484715797.47,29199,4.31,73624.5,-15.51,-40.79,-42.83,0,*6D
1484715798.75,29200,4.25,73622.3,-15.51,-40.79,-42.83,0,*6E
1484715800.02,29201,4.25,73622.0,-15.51,-40.85,-42.75,0,*65
1484715801.27,29202,4.31,73622.3,-15.53,-40.85,-42.75,0,*64
1484715802.56,29203,4.25,73620.3,-15.51,-40.85,-42.83,0,*6E
1484715803.85,29204,4.25,73618.3,-15.51,-40.97,-42.83,0,*6A
1484715805.11,29205,4.25,73622.0,-15.51,-40.79,-42.75,0,*62
1484715806.4,29206,4.25,73620.8,-15.51,-40.85,-42.83,0,*6B
1484715807.69,29207,4.25,73618.8,-15.51,-40.97,-42.83,0,*69
1484715808.98,29208,4.25,73618.5,-15.51,-40.85,-42.83,0,*65
1484715810.27,29209,4.25,73620.8,-15.51,-40.85,-42.83,0,*64
1484715811.51,29210,4.25,73618.8,-15.51,-40.65,-42.75,0,*6B
1484715812.8,29211,4.25,73620.8,-15.51,-40.85,-42.83,0,*6D
1484715814.06,29212,4.31,73622.8,-15.53,-40.97,-42.83,0,*6F
1484715815.35,29213,4.25,73620.0,-15.51,-40.85,-42.83,0,*6F
1484715816.64,29214,4.25,73622.5,-15.51,-40.97,-42.83,0,*6B
1484715817.91,29215,4.25,73620.3,-15.51,-40.79,-42.75,0,*63
1484715819.19,29216,4.25,73622.0,-15.51,-40.79,-42.83,0,*69
1484715820.48,29217,4.25,73620.8,-15.51,-40.85,-42.83,0,*6B
1484715821.77,29218,4.25,73618.0,-15.51,-40.85,-42.83,0,*64
1484715823.06,29219,4.25,73620.8,-15.51,-40.85,-42.83,0,*65
1484715824.34,29220,4.25,73618.5,-15.51,-40.79,-42.83,0,*6C
1484715825.63,29221,4.31,73620.8,-15.51,-40.97,-42.83,0,*6D
1484715826.92,29222,4.25,73622.0,-15.51,-40.85,-42.83,0,*6D
1484715828.19,29223,4.31,73622.8,-15.51,-40.85,-42.75,0,*65
1484715829.45,29224,4.31,73620.0,-15.51,-40.79,-42.75,0,*61
1484715830.74,29225,4.31,73622.0,-15.51,-40.79,-42.83,0,*69
1484715832.03,29226,4.31,73620.5,-15.51,-40.85,-42.83,0,*69
1484715833.31,29227,4.31,73622.0,-15.51,-40.79,-42.83,0,*6B
1484715834.58,29228,4.25,73622.0,-15.51,-40.79,-42.75,0,*6D
1484715835.86,29229,4.31,73620.8,-15.51,-40.79,-42.83,0,*65
1484715837.13,29230,4.25,73618.0,-15.53,-40.85,-42.83,0,*6C
1484715838.41,29231,4.31,73620.3,-15.51,-40.79,-42.83,0,*6C
1484715839.7,29232,4.25,73622.0,-15.51,-40.85,-42.83,0,*6C
1484715840.99,29233,4.25,73622.5,-15.51,-40.85,-42.83,0,*6D
1484715842.28,29234,4.31,73622.5,-15.51,-40.85,-42.83,0,*6A
1484715843.56,29235,4.31,73624.0,-15.51,-40.79,-42.83,0,*68
1484715844.82,29236,4.31,73622.3,-15.51,-40.65,-42.83,0,*66
1484715846.06,29237,4.31,73620.0,-15.53,-40.65,-42.83,0,*65
1484715847.35,29238,4.31,73620.8,-15.51,-40.85,-42.83,0,*66
1484715848.63,29239,4.25,73620.8,-15.51,-40.97,-42.83,0,*64
1484715849.9,29240,4.31,73620.3,-15.53,-40.85,-42.83,0,*6B
1484715851.17,29241,4.25,73620.5,-15.53,-40.97,-42.83,0,*69
1484715852.46,29242,4.31,73622.8,-15.51,-40.85,-42.83,0,*6B
1484715853.75,29243,4.31,73620.8,-15.51,-40.97,-42.83,0,*69
1484715855.04,29244,4.31,73622.8,-15.51,-40.85,-42.83,0,*6D
1484715856.33,29245,4.31,73622.5,-15.51,-40.85,-42.83,0,*6C
1484715857.61,29246,4.31,73620.8,-15.51,-40.85,-42.83,0,*6F
1484715858.9,29247,4.31,73622.8,-15.51,-40.79,-42.83,0,*6D
1484715860.18,29248,4.31,73624.3,-15.51,-40.79,-42.83,0,*62
1484715861.45,29249,4.31,73620.5,-15.53,-40.85,-42.83,0,*62
1484715862.74,29250,4.31,73622.0,-15.51,-40.85,-42.83,0,*68
1484715864.03,29251,4.31,73622.3,-15.51,-40.85,-42.83,0,*69
1484715865.32,29252,4.25,73620.5,-15.51,-40.97,-42.83,0,*69
1484715866.6,29253,4.31,73620.8,-15.51,-40.79,-42.83,0,*68
1484715867.87,29254,4.31,73622.8,-15.51,-40.79,-42.75,0,*66
1484715869.16,29255,4.31,73622.3,-15.51,-40.85,-42.83,0,*6D
1484715870.44,29256,4.31,73620.5,-15.51,-40.79,-42.83,0,*6D
1484715871.72,29257,4.25,73622.5,-15.51,-40.79,-42.83,0,*6C
1484715873.01,29258,4.31,73622.0,-15.51,-40.85,-42.83,0,*60
1484715874.3,29259,4.31,73620.0,-15.51,-40.97,-42.83,0,*62
1484715875.59,29260,4.31,73622.0,-15.51,-40.79,-42.83,0,*68
1484715876.88,29261,4.31,73620.3,-15.51,-40.85,-42.83,0,*6A
1484715878.16,29262,4.25,73620.0,-15.51,-40.85,-42.83,0,*69
1484715879.43,29263,4.31,73622.8,-15.51,-40.79,-42.75,0,*62
1484715880.72,29264,4.31,73624.3,-15.51,-40.97,-42.83,0,*6C
1484715882.01,29265,4.31,73620.3,-15.51,-40.85,-42.95,0,*69
1484715883.26,29266,4.31,73620.8,-15.53,-40.79,-42.75,0,*65
1484715884.5,29267,4.31,73624.3,-15.51,-40.65,-42.63,0,*6C
1484715885.78,29268,4.25,73620.3,-15.51,-40.79,-42.83,0,*60
1484715887.04,29269,4.31,73622.5,-15.51,-40.65,-42.83,0,*6C
1484715888.31,29270,4.31,73624.8,-15.51,-40.79,-42.75,0,*60
1484715889.59,29271,4.31,73626.3,-15.51,-40.85,-42.83,0,*6B
1484715890.88,29272,4.31,73624.5,-15.51,-40.85,-42.83,0,*68
1484715892.17,29273,4.25,73622.5,-15.51,-40.85,-42.83,0,*69
1484715893.4,29274,4.31,73626.0,-15.49,-40.65,-42.83,0,*69
1484715894.67,29275,4.31,73624.0,-15.49,-40.97,-42.83,0,*65
1484715895.94,29276,4.31,73620.8,-15.51,-40.79,-42.75,0,*66
1484715897.22,29277,4.31,73624.0,-15.51,-40.79,-42.83,0,*6E
1484715898.46,29278,4.25,73622.0,-15.51,-40.65,-42.75,0,*65
1484715899.7,29279,4.25,73620.8,-15.49,-40.79,-42.75,0,*60
1484715900.97,29280,4.31,73622.0,-15.49,-40.85,-42.83,0,*6C
1484715902.21,29281,4.31,73620.8,-15.49,-40.85,-42.75,0,*64
1484715903.48,29282,4.31,73622.8,-15.49,-40.97,-42.83,0,*6D
1484715904.74,29283,4.31,73626.0,-15.51,-40.79,-42.75,0,*6C
1484715906.03,29284,4.31,73622.5,-15.51,-40.85,-42.83,0,*61
1484715907.3,29285,4.25,73620.8,-15.51,-40.79,-42.75,0,*6A
1484715908.56,29286,4.25,73620.3,-15.49,-40.79,-42.83,0,*69
1484715909.77,29287,4.25,73620.8,-15.49,-40.65,-42.75,0,*6C
1484715911.02,29288,4.31,73624.5,-15.49,-40.79,-42.75,0,*6E
1484715912.3,29289,4.25,73620.3,-15.51,-40.79,-42.83,0,*6F
1484715913.55,29290,4.31,73622.8,-15.49,-40.85,-42.75,0,*64
1484715914.78,29291,4.31,73622.3,-15.49,-40.65,-42.57,0,*6B
1484715916.02,29292,4.31,73624.8,-15.49,-40.79,-42.75,0,*65
1484715917.24,29293,4.31,73624.0,-15.49,-40.65,-42.75,0,*69
1484715918.5,29294,4.31,73622.5,-15.49,-40.79,-42.83,0,*6A
1484715919.77,29295,4.31,73622.8,-15.47,-40.59,-42.63,0,*69
1484715921.03,29296,4.31,73624.5,-15.49,-40.85,-42.83,0,*6B
1484715922.25,29297,4.25,73620.5,-15.49,-40.65,-42.75,0,*6D
1484715923.49,29298,4.25,73620.0,-15.47,-40.73,-42.75,0,*6B
1484715924.76,29299,4.25,73622.0,-15.49,-40.97,-42.83,0,*67
1484715926.0,29300,4.31,73622.3,-15.49,-40.79,-42.75,0,*6F
1484715927.26,29301,4.31,73624.3,-15.49,-40.79,-42.83,0,*67
1484715928.5,29302,4.31,73620.0,-15.49,-40.79,-42.75,0,*6D
1484715929.75,29303,4.31,73622.8,-15.49,-40.59,-42.63,0,*69
1484715931.01,29304,4.31,73624.5,-15.49,-40.79,-42.83,0,*62
1484715932.27,29305,4.25,73622.5,-15.49,-40.97,-42.83,0,*63
1484715933.54,29306,4.31,73622.5,-15.49,-40.79,-42.83,0,*60
1484715934.8,29307,4.25,73622.8,-15.47,-40.73,-42.69,0,*61
1484715936.03,29308,4.25,73622.3,-15.49,-40.65,-42.83,0,*63
1484715937.3,29309,4.31,73620.8,-15.49,-40.85,-42.83,0,*6C
1484715938.56,29310,4.31,73622.8,-15.49,-40.85,-42.83,0,*64
1484715939.86,29311,4.31,73622.0,-15.51,-40.85,-42.95,0,*6B
1484715941.12,29312,4.25,73622.5,-15.49,-40.79,-42.83,0,*65
1484715942.38,29313,4.25,73620.0,-15.49,-40.85,-42.83,0,*67
1484715943.65,29314,4.25,73622.0,-15.49,-40.97,-42.83,0,*63
1484715944.91,29315,4.31,73620.8,-15.49,-40.79,-42.83,0,*62
1484715946.17,29316,4.25,73620.3,-15.49,-40.97,-42.83,0,*61
1484715947.39,29317,4.25,73622.8,-15.49,-41.17,-43.01,0,*62
1484715948.61,29318,4.25,73620.3,-15.49,-41.03,-43.01,0,*68
1484715949.86,29319,4.25,73620.3,-15.49,-41.17,-42.95,0,*60
1484715951.12,29320,4.31,73622.5,-15.49,-40.97,-42.83,0,*64
1484715952.37,29321,4.31,73620.0,-15.49,-40.79,-42.75,0,*6C
1484715953.64,29322,4.31,73622.8,-15.49,-40.97,-42.95,0,*61
1484715954.93,29323,4.25,73622.5,-15.51,-40.85,-42.83,0,*6D
1484715956.22,29324,4.25,73622.3,-15.51,-40.85,-42.83,0,*6A
1484715957.48,29325,4.31,73620.5,-15.49,-40.97,-42.83,0,*61
1484715958.75,29326,4.25,73620.3,-15.49,-40.85,-42.83,0,*61
1484715960.04,29327,4.31,73624.3,-15.51,-40.85,-42.95,0,*6E
1484715961.34,29328,4.31,73624.8,-15.51,-40.97,-42.95,0,*62
1484715962.63,29329,4.25,73622.3,-15.51,-40.97,-42.95,0,*63
1484715963.9,29330,4.25,73620.0,-15.49,-40.85,-42.83,0,*66
1484715965.16,29331,4.31,73624.5,-15.49,-40.85,-42.83,0,*67
1484715966.4,29332,4.25,73622.3,-15.49,-40.79,-42.75,0,*6E
1484715967.67,29333,4.25,73622.8,-15.51,-40.59,-42.63,0,*63
1484715968.96,29334,4.31,73624.8,-15.51,-40.97,-42.83,0,*68
1484715970.26,29335,4.31,73624.5,-15.51,-40.97,-42.95,0,*6E
1484715971.55,29336,4.31,73624.0,-15.51,-40.97,-42.95,0,*6D
1484715972.82,29337,4.31,73626.0,-15.51,-40.79,-42.63,0,*65
1484715974.06,29338,4.31,73620.8,-15.51,-40.65,-42.75,0,*60
1484715975.3,29339,4.25,73620.5,-15.51,-40.65,-42.75,0,*61
1484715976.54,29340,4.31,73624.3,-15.53,-40.79,-42.75,0,*60
1484715977.78,29341,4.31,73624.8,-15.51,-40.65,-42.63,0,*69
1484715979.05,29342,4.25,73620.0,-15.51,-40.79,-42.75,0,*60
1484715980.33,29343,4.31,73624.5,-15.51,-40.79,-42.83,0,*68
1484715981.58,29344,4.31,73622.0,-15.49,-40.59,-42.75,0,*6D
1484715982.8,29345,4.25,73618.8,-15.53,-40.65,-42.75,0,*68
1484715984.06,29346,4.25,73622.3,-15.53,-40.79,-42.83,0,*6F
1484715985.33,29347,4.25,73622.0,-15.51,-40.79,-42.75,0,*65
1484715986.61,29348,4.31,73624.5,-15.51,-40.85,-42.83,0,*60
1484715987.88,29349,4.25,73622.0,-15.53,-40.97,-42.83,0,*60
1484715989.17,29350,4.31,73620.8,-15.51,-40.97,-42.83,0,*6A
1484715990.46,29351,4.31,73626.5,-15.51,-40.79,-42.83,0,*6B
1484715991.74,29352,4.25,73620.3,-15.51,-40.85,-42.83,0,*6B
1484715993.02,29353,4.25,73622.5,-15.53,-40.79,-42.95,0,*6C
1484715994.26,29354,4.25,73620.0,-15.53,-40.79,-42.75,0,*65
1484715995.54,29355,4.31,73622.0,-15.51,-41.03,-42.95,0,*64
1484715996.83,29356,4.31,73624.5,-15.51,-40.85,-42.95,0,*68
1484715998.13,29357,4.25,73620.3,-15.51,-40.85,-42.95,0,*69
1484715999.4,29358,4.31,73620.0,-15.53,-40.97,-42.95,0,*67
1484716000.7,29359,4.25,73620.8,-15.51,-40.85,-42.95,0,*67
1484716001.97,29360,4.31,73624.3,-15.53,-40.97,-42.95,0,*6C
1484716003.25,29361,4.25,73624.0,-15.53,-40.97,-42.95,0,*6D
1484716004.53,29362,4.31,73622.5,-15.53,-40.85,-42.95,0,*6D
1484716005.79,29363,4.25,73622.0,-15.51,-40.79,-42.75,0,*63
1484716007.06,29364,4.25,73620.8,-15.53,-40.85,-42.83,0,*6C
1484716008.3,29365,4.25,73620.3,-15.53,-40.79,-42.63,0,*60
1484716009.59,29366,4.31,73624.8,-15.51,-40.85,-42.83,0,*6C
1484716010.86,29367,4.31,73622.5,-15.51,-40.79,-42.63,0,*60
1484716012.08,29368,4.31,73622.8,-15.53,-40.65,-42.63,0,*60
1484716013.37,29369,4.31,73622.8,-15.51,-40.85,-42.83,0,*63
1484716014.63,29370,4.31,73624.5,-15.53,-40.85,-42.83,0,*69
1484716015.9,29371,4.31,73626.8,-15.51,-40.79,-42.75,0,*60
1484716017.16,29372,4.31,73622.5,-15.53,-41.03,-42.95,0,*63
1484716018.4,29373,4.31,73626.3,-15.53,-40.79,-42.75,0,*60
1484716019.69,29374,4.25,73620.3,-15.51,-40.85,-42.83,0,*6F
1484716020.96,29375,4.31,73624.5,-15.53,-40.85,-42.83,0,*6C
1484716022.23,29376,4.31,73620.0,-15.53,-40.85,-42.83,0,*6F
1484716023.52,29377,4.31,73624.0,-15.51,-40.85,-42.83,0,*6C
1484716024.77,29378,4.31,73626.5,-15.53,-40.85,-42.75,0,*68
1484716026.03,29379,4.31,73620.5,-15.53,-40.79,-42.83,0,*63
1484716027.29,29380,4.31,73622.5,-15.51,-40.79,-42.75,0,*6E
1484716028.56,29381,4.25,73620.5,-15.53,-40.85,-42.83,0,*67
1484716029.78,29382,4.31,73620.8,-15.53,-40.65,-42.75,0,*63
1484716031.0,29383,4.31,73622.5,-15.53,-40.65,-42.63,0,*65
1484716032.24,29384,4.31,73626.8,-15.57,-41.03,-42.89,0,*63
1484716033.5,29385,4.25,73622.8,-15.57,-40.73,-42.69,0,*6A
1484716034.77,29386,4.31,73624.8,-15.57,-40.85,-42.89,0,*6E
1484716036.05,29387,4.31,73620.0,-15.57,-40.85,-42.83,0,*65
1484716037.3,29388,4.31,73620.8,-15.53,-40.79,-42.75,0,*64
1484716038.56,29389,4.25,73622.0,-15.53,-40.79,-42.83,0,*6C
1484716039.83,29390,4.31,73620.5,-15.53,-40.79,-42.83,0,*64
1484716041.09,29391,4.31,73620.3,-15.57,-40.85,-42.89,0,*68
1484716042.35,29392,4.31,73626.0,-15.57,-40.73,-42.83,0,*68
1484716043.61,29393,4.31,73622.5,-15.57,-40.73,-42.69,0,*6D
1484716044.89,29394,4.31,73622.3,-15.57,-40.85,-42.83,0,*67
1484716046.11,29395,4.31,73620.8,-15.53,-40.65,-42.75,0,*65
1484716047.36,29396,4.25,73622.0,-15.53,-40.79,-42.75,0,*6B
1484716048.61,29397,4.25,73620.5,-15.53,-40.79,-42.75,0,*6A
1484716049.87,29398,4.25,73620.8,-15.53,-40.85,-42.83,0,*6F
1484716051.14,29399,4.25,73620.5,-15.53,-40.85,-42.83,0,*6E
1484716052.39,29400,4.31,73626.3,-15.53,-40.79,-42.75,0,*63
1484716053.66,29401,4.25,73622.8,-15.53,-40.85,-42.83,0,*68
1484716054.92,29402,4.31,73620.8,-15.53,-40.79,-42.83,0,*68
1484716056.19,29403,4.25,73620.5,-15.53,-40.79,-42.83,0,*69
1484716057.45,29404,4.31,73626.3,-15.53,-40.79,-42.83,0,*6E
1484716058.7,29405,4.31,73624.3,-15.53,-40.85,-42.75,0,*65
1484716059.95,29406,4.25,73620.5,-15.53,-40.79,-42.75,0,*65
1484716061.19,29407,4.25,73622.5,-15.57,-40.91,-42.89,0,*65
1484716062.47,29408,4.31,73622.0,-15.57,-40.85,-42.83,0,*65
1484716063.73,29409,4.31,73626.0,-15.57,-40.73,-42.83,0,*6D
1484716064.98,29410,4.31,73622.3,-15.53,-40.79,-42.63,0,*65
1484716066.27,29411,4.25,73622.5,-15.57,-40.85,-42.83,0,*6D
1484716067.53,29412,4.31,73622.5,-15.57,-40.73,-42.83,0,*67
1484716068.81,29413,4.25,73622.8,-15.57,-40.85,-42.83,0,*6F
1484716070.08,29414,4.31,73622.3,-15.57,-40.85,-42.63,0,*66
1484716071.34,29415,4.31,73626.5,-15.57,-40.85,-42.89,0,*63
1484716072.58,29416,4.31,73622.5,-15.59,-40.91,-42.69,0,*65
1484716073.84,29417,4.31,73622.8,-15.57,-40.85,-42.89,0,*61
1484716075.1,29418,4.31,73620.0,-15.59,-40.85,-42.83,0,*6A
1484716076.36,29419,4.31,73622.3,-15.57,-40.73,-42.69,0,*68
1484716077.62,29420,4.31,73622.8,-15.57,-40.85,-42.89,0,*65
1484716078.85,29421,4.31,73624.5,-15.59,-40.85,-42.89,0,*6A
1484716080.14,29422,4.31,73622.5,-15.57,-40.85,-42.69,0,*69
1484716081.4,29423,4.25,73620.5,-15.57,-40.73,-42.83,0,*65
1484716082.64,29424,4.25,73620.0,-15.57,-40.91,-42.89,0,*64
1484716083.91,29425,4.31,73622.8,-15.57,-41.03,-42.83,0,*65
1484716085.15,29426,4.31,73620.8,-15.57,-40.91,-42.89,0,*66
1484716086.44,29427,4.31,73624.0,-15.57,-40.85,-42.83,0,*68
1484716087.7,29428,4.31,73626.0,-15.57,-40.65,-42.69,0,*6D
1484716088.96,29429,4.31,73622.8,-15.57,-40.85,-42.89,0,*6C
1484716090.22,29430,4.25,73622.8,-15.57,-40.85,-42.89,0,*64
1484716091.46,29431,4.31,73624.3,-15.57,-41.03,-42.89,0,*6A
1484716092.72,29432,4.31,73624.3,-15.57,-40.73,-42.83,0,*65
1484716093.96,29433,4.31,73624.3,-15.57,-41.03,-42.89,0,*68
1484716095.18,29434,4.31,73626.5,-15.59,-41.03,-42.89,0,*61
1484716096.44,29435,4.31,73624.0,-15.57,-40.85,-42.89,0,*61
1484716097.68,29436,4.25,73622.3,-15.57,-40.53,-42.63,0,*6D
1484716098.94,29437,4.31,73622.3,-15.57,-40.91,-42.83,0,*6C
1484716100.2,29438,4.31,73626.0,-15.57,-40.65,-42.69,0,*6C
1484716101.41,29439,4.31,73624.0,-15.59,-41.03,-42.89,0,*6C
1484716102.65,29440,4.31,73624.3,-15.57,-40.91,-42.89,0,*66
1484716103.91,29441,4.31,73624.5,-15.59,-40.85,-42.83,0,*66
1484716105.2,29442,4.25,73620.8,-15.57,-40.85,-42.83,0,*6B